Location: Cañada de la Miga
(34.7595°N, 106.2317°W)
Time: 00:44:21
(UTC+00:00)

Vanguard 1 - Visible Passes

Search period start: 28 November 2021 00:00
Search period end: 08 December 2021 00:00
Orbit: 653 x 3830 km, 34.3° (Epoch: 27 November)

Date Brightness Start Highest point End Pass type
(mag) Time Alt. Az. Time Alt. Az. Time Alt. Az.
28 Nov 13.4 07:56:34 32° E 07:56:34 32° E 08:03:32 10° ENE visible
28 Nov 12.3 10:09:16 79° WSW 10:11:11 86° S 10:26:08 10° E visible
28 Nov 11.9 12:21:58 21° W 12:36:26 81° SSW 12:46:57 10° ESE visible
29 Nov 14.0 05:21:41 10° SSW 06:03:29 - ENE 05:21:43 10° SSW visible
29 Nov 13.2 08:16:11 40° E 08:16:11 40° E 08:24:51 10° ENE visible
29 Nov 12.3 10:28:53 68° W 10:32:47 88° S 10:47:14 10° E visible
29 Nov 11.9 12:41:35 16° W 12:57:37 74° SSW 13:07:45 10° ESE visible
30 Nov 13.9 03:28:32 10° SSE 03:28:34 10° SSE 03:28:34 10° SSE visible
30 Nov 14.0 06:23:06 - ENE 06:23:06 - ENE 05:41:16 10° SSW visible
30 Nov 12.9 08:35:47 48° E 08:35:47 48° E 08:46:07 10° E visible
30 Nov 12.2 10:48:30 58° W 10:54:23 89° S 11:08:18 10° E visible
30 Nov 12.0 13:01:11 11° WNW 13:18:38 64° SSW 13:28:24 10° SE visible
01 Dec 13.7 03:45:17 10° S 03:48:10 14° SSE 03:48:10 14° SSE visible
01 Dec 14.0 06:42:41 11° ENE 06:42:41 11° ENE 06:43:14 10° ENE visible
01 Dec 12.8 08:55:23 58° E 08:55:23 58° E 09:07:22 10° E visible
01 Dec 12.2 11:08:05 49° W 11:15:56 86° S 11:29:20 10° ESE visible
01 Dec 12.1 13:22:22 10° WNW 13:39:27 54° SW 13:48:52 10° SE visible
02 Dec 13.6 04:03:40 10° S 04:07:48 18° S 04:07:48 18° S visible
02 Dec 13.9 07:02:17 16° ENE 07:02:17 16° ENE 07:04:46 10° ENE visible
02 Dec 12.6 09:14:58 68° E 09:14:58 68° E 09:28:35 10° E visible
02 Dec 12.2 11:27:40 41° W 11:37:23 82° SSW 11:50:18 10° ESE visible
03 Dec 13.5 04:22:54 10° SSW 04:27:29 21° S 04:27:29 21° S visible
03 Dec 13.7 07:21:52 22° E 07:21:52 22° E 07:26:13 10° ENE visible
03 Dec 12.5 09:34:33 79° E 09:34:33 79° E 09:49:48 10° E visible
03 Dec 12.2 11:47:15 34° W 11:58:42 75° SSW 12:11:08 10° ESE visible
04 Dec 13.6 02:30:50 10° SSE 02:34:30 13° SE 02:34:30 13° SE visible
04 Dec 13.5 04:42:38 10° SSW 04:47:12 22° SSW 04:47:12 22° SSW visible
04 Dec 13.5 07:41:27 28° E 07:41:27 28° E 07:47:37 10° E visible
04 Dec 12.4 09:54:09 88° SSW 09:54:17 89° S 10:10:59 10° E visible
04 Dec 12.2 12:06:51 27° W 12:19:49 66° SSW 12:31:49 10° SE visible
05 Dec 13.4 02:47:17 10° SSE 02:54:15 19° SE 02:54:15 19° SE visible
05 Dec 13.5 05:02:48 10° SW 05:06:58 22° SSW 05:06:58 22° SSW visible
05 Dec 13.4 08:01:03 35° E 08:01:03 35° E 08:08:59 10° E visible
05 Dec 12.4 10:13:45 78° W 10:15:58 86° S 10:32:07 10° ESE visible
05 Dec 12.3 12:26:27 21° W 12:40:43 56° SW 12:52:19 10° SE visible
06 Dec 13.2 03:05:40 10° S 03:14:03 25° SSE 03:14:03 25° SSE visible
06 Dec 13.6 05:23:15 10° SW 06:07:59 - ENE 05:26:45 21° SW visible
06 Dec 13.2 08:20:41 42° E 08:20:41 42° E 08:30:22 10° E visible
06 Dec 12.4 10:33:22 67° W 10:37:33 82° SSW 10:53:09 10° ESE visible
06 Dec 12.5 12:46:04 16° W 13:01:25 46° SW 13:12:33 10° SSE visible
07 Dec 13.1 03:24:53 10° SSW 03:33:52 32° SSE 03:33:52 32° SSE visible
07 Dec 13.7 05:43:59 10° SW 06:27:37 - ENE 05:46:34 18° SW visible
07 Dec 13.0 08:40:19 50° E 08:40:19 50° E 08:51:43 10° E visible
07 Dec 12.4 10:53:01 57° W 10:58:59 75° SSW 11:14:04 10° ESE visible
07 Dec 12.7 13:05:43 11° WNW 13:21:53 37° SW 13:32:28 10° SSE visible
